Content
SEND FEEDBACK

Daily
Averages
Monthly
Summary
United States of America

STEAMBOAT SPRINGS, COLORADO


Home > North America > United States > Colorado
Elevation: 6917 feet     Latitude: 40 30N     Longitude: 106 50W

WEATHER
 
SELECT A DAY
Number of Records: 85,156;   Date Range: 1/3/95 - 9/17/14
 
SHARE

PRINT THIS DATA

[ ← Previous Day ]
WEATHER ALMANAC - OCTOBER 15, 2013
[ Next Day → ]
[ °C ]   °F
Weather ElementAverageHighLow
Temperature33.7 °F40.1 °F (5:14 pm)29.7 °F (11:34 pm)
Dewpoint26.4 °F31.5 °F (1:54 am)19.9 °F (5:34 pm)
Humidity76.6 %98 % (1:54 am)45 % (5:14 pm)
Barometer30.20 in30.24 in (8:34 am)30.15 in (4:34 pm)
Wind Speed1.8 mph8.1 mph (12:33 pm)
Weather ElementAverage
Visibility9.7 mi
Wind DirectionENE (60 °)

Weather ElementTotal
Precipitation---
Heating Degree Days30.1 (Base 65)
Averaged from 64 records on October 15, 2013
WEATHER CONDITIONS BREAKOUT
WIND DIRECTION BREAKOUT
WEATHER BY HOUR - OCTOBER 15, 2013
[ °C ]   °F
Local TimeTemperatureDewpointHumidityBarometerVisibilityWind DirectionWind SpeedGust SpeedPrecipitationEventsConditions
12:34 AM33.1 °F31.3 °F93 %30.21 in10.0 miCalmOvercast
12:54 AM32.9 °F31.1 °F93 %30.21 in10.0 miCalmOvercast
1:14 AM32.4 °F31.1 °F95 %30.21 in10.0 miCalmOvercast
1:34 AM32.2 °F31.3 °F96 %30.21 in10.0 miCalmOvercast
1:54 AM32.0 °F31.5 °F98 %30.22 in10.0 miCalmOvercast
2:14 AM32.2 °F31.1 °F96 %30.22 in10.0 miCalmOvercast
2:34 AM32.2 °F31.1 °F96 %30.22 in10.0 miCalmOvercast
2:54 AM32.0 °F31.3 °F97 %30.22 in7.0 miCalmOvercast
3:14 AM32.0 °F31.1 °F96 %30.22 in7.0 miCalmOvercast
3:34 AM32.0 °F31.5 °F98 %30.21 in5.0 miCalmOvercast
3:54 AM31.8 °F31.1 °F97 %30.21 in7.0 miCalmOvercast
4:14 AM31.8 °F31.1 °F97 %30.21 in5.0 miCalmOvercast
4:34 AM31.6 °F30.7 °F96 %30.22 in7.0 miSW (230°)5.8 mphOvercast
4:54 AM31.5 °F30.7 °F97 %30.21 in10.0 miSSW (200°)3.5 mphOvercast
5:14 AM31.6 °F30.4 °F95 %30.21 in10.0 miSW (230°)5.8 mphOvercast
5:34 AM31.5 °F30.0 °F94 %30.21 in10.0 miSW (220°)3.5 mphOvercast
5:54 AM31.1 °F30.0 °F96 %30.21 in10.0 miSSW (200°)3.5 mphOvercast
6:14 AM31.1 °F30.0 °F96 %30.21 in10.0 miSW (220°)4.6 mphOvercast
6:34 AM31.1 °F29.8 °F95 %30.22 in10.0 miSSW (210°)3.5 mphOvercast
6:54 AM31.1 °F29.8 °F95 %30.21 in10.0 miCalmOvercast
7:14 AM31.1 °F29.8 °F95 %30.22 in10.0 miCalmOvercast
7:34 AM31.1 °F29.1 °F92 %30.22 in10.0 miCalmOvercast
7:54 AM31.6 °F28.4 °F88 %30.23 in10.0 miCalmOvercast
8:14 AM31.8 °F28.0 °F86 %30.23 in10.0 miCalmOvercast
8:34 AM32.0 °F28.4 °F87 %30.24 in10.0 miCalmOvercast
8:54 AM32.0 °F26.1 °F79 %30.24 in10.0 miCalmOvercast
9:13 AM32.0 °F25.7 °F78 %30.24 in10.0 miCalmOvercast
9:33 AM32.9 °F27.1 °F79 %30.24 in10.0 miCalmOvercast
9:53 AM33.4 °F26.8 °F77 %30.24 in10.0 miCalmOvercast
10:13 AM34.5 °F26.1 °F71 %30.24 in10.0 miCalmOvercast
10:33 AM37.2 °F26.6 °F65 %30.23 in10.0 miCalmOvercast
10:54 AM36.3 °F25.2 °F64 %30.23 in10.0 miCalmMostly Cloudy
11:13 AM37.8 °F25.3 °F61 %30.23 in10.0 miCalmScattered Clouds
11:33 AM37.4 °F25.3 °F62 %30.22 in10.0 miCalmMostly Cloudy
11:52 AM37.0 °F21.9 °F54 %30.22 in10.0 miCalmOvercast
12:13 PM37.2 °F24.1 °F59 %30.23 in10.0 miNE (40°)5.8 mphOvercast
12:33 PM37.0 °F23.0 °F57 %30.22 in10.0 miNNE (30°)8.1 mphOvercast
12:53 PM37.4 °F21.9 °F54 %30.21 in10.0 miNNE (20°)6.9 mphOvercast
1:04 PM37.6 °F22.1 °F54 %30.21 in10.0 miNNE (30°)5.8 mphOvercast
3:54 PM39.6 °F22.8 °F51 %30.16 in10.0 miWest (270°)5.8 mphOvercast
4:14 PM39.9 °F23.0 °F51 %30.16 in10.0 miCalmOvercast
4:34 PM39.7 °F23.0 °F51 %30.15 in10.0 miCalmOvercast
4:54 PM39.4 °F22.5 °F51 %30.15 in10.0 miCalmOvercast
5:14 PM40.1 °F20.5 °F45 %30.15 in10.0 miCalmOvercast
5:34 PM39.7 °F19.9 °F45 %30.15 in10.0 miCalmOvercast
5:54 PM39.2 °F21.6 °F49 %30.15 in10.0 miWSW (250°)5.8 mphOvercast
6:14 PM39.4 °F20.7 °F47 %30.15 in10.0 miCalmScattered Clouds
6:34 PM36.1 °F25.2 °F64 %30.16 in10.0 miSSW (200°)4.6 mphScattered Clouds
6:54 PM35.1 °F24.3 °F65 %30.16 in10.0 miSSW (200°)6.9 mphScattered Clouds
7:14 PM35.1 °F24.3 °F65 %30.17 in10.0 miSSW (200°)8.1 mphMostly Cloudy
7:34 PM34.2 °F24.1 °F67 %30.18 in10.0 miSSW (210°)3.5 mphMostly Cloudy
7:54 PM33.8 °F24.3 °F68 %30.18 in10.0 miCalmOvercast
8:14 PM33.3 °F24.6 °F71 %30.18 in10.0 miCalmOvercast
8:34 PM32.9 °F24.4 °F71 %30.18 in10.0 miSSW (210°)3.5 mphOvercast
8:54 PM32.2 °F24.4 °F73 %30.19 in10.0 miCalmOvercast
9:14 PM31.8 °F24.3 °F74 %30.20 in10.0 miCalmOvercast
9:34 PM31.1 °F23.9 °F75 %30.20 in10.0 miSW (230°)8.1 mphOvercast
9:54 PM30.7 °F23.7 °F75 %30.20 in10.0 miSW (220°)5.8 mphOvercast
10:14 PM30.4 °F23.5 °F76 %30.21 in10.0 miSW (220°)5.8 mphOvercast
10:34 PM30.2 °F23.9 °F77 %30.21 in10.0 miCalmOvercast
10:54 PM30.0 °F23.7 °F77 %30.21 in10.0 miCalmOvercast
11:14 PM30.0 °F23.9 °F78 %30.21 in10.0 miCalmOvercast
11:34 PM29.7 °F23.9 °F79 %30.21 in10.0 miCalmOvercast
11:54 PM29.7 °F24.3 °F80 %30.21 in10.0 miCalmOvercast
Hourly data recorded from KSBS, located miles away from Steamboat Springs, Colorado







STORIES FROM OUR PARTNERS